Погода в Пудеме

Россия / Удмуртская Республика     58°18′15″N   52°09′46″E
темп.,
°C
ветер,
м/с
пор.,
м/с
влажн.,
%
обл.,
%
осадки,
мм/ч
давл.,
гПа
погр.,
м
27 июля, вт
вт2701:00+15з51272100 0.1 1013668
04:00+13з498516 0.1 1013418
07:00+14сз588364 0.0 1014900
10:00+16ссз57541 0.1 10151404
13:00+18сз57429 0.0 10141935
16:00+19сз573925 0.0 10142255
19:00+16с475499 0.0 1014923
22:00+10ссв117530 0.0 101510
28 июля, ср
ср2801:00+11зюз2367100 0.0 101467
04:00+12зюз4106395 0.0 1013302
07:00+13сз49675 0.0 1013510
10:00+16сз69425 0.0 10131687
13:00+19сз68385 0.0 10122007
16:00+20сз583510 0.0 10122114
19:00+17сз255221 0.0 1012165
22:00+12юз11671 0.0 101110
29 июля, чт
чт2901:00+10юз22735 0.0 101118
04:00+9юз237867 0.0 101047
07:00+14зюз376696 0.0 1009233
10:00+19зюз3550100 0.0 1007532
13:00+22юз5650100 0.0 1006916
16:00+24ююз3648100 0.0 10041665
19:00+16юз2798100 6.9 1003266
22:00+15ююз3799100 8.9 1002325
30 июля, пт
пт3001:00+15юз269991 0.1 1000313
04:00+15зюз379999 0.1 1000442
07:00+15зюз3897100 0.1 1000465
10:00+18з3694100 0.7 1000598
13:00+17зсз4794100 0.5 1002492
16:00+21зсз467128 0.7 10031060
19:00+20з35735 0.1 1003334
22:00+18ююз248354 0.1 100477
31 июля, сб
сб3101:00+15зюз229025 0.0 100547
04:00+17ююз257980 0.0 1004118
07:00+18ююз3979100 0.1 1005289
10:00+23зюз5962100 0.3 1005679
13:00+23юз5865100 0.5 1004770
16:00+22юз5981100 3.2 10021092
19:00+20зюз4108515 3.6 1003279
22:00+17зюз239285 6.2 100546